Weather History for Rutland, VT

Change the Weather History Date:

Sunday, February 17, 2013

  Actual Average Record
Temperature  
Mean Temperature 14 °F -  
Max Temperature 19 °F - 54 °F (1981)
Min Temperature 9 °F - -15 °F (1963)
Degree Days  
Heating Degree Days 51    
Month to date heating degree days 745  
Since 1 July heating degree days 4470  
Cooling Degree Days 0    
Month to date cooling degree days 0  
Year to date cooling degree days 0  
Moisture  
Dew Point 1 °F    
Average Humidity 59    
Maximum Humidity 73    
Minimum Humidity 45    
Precipitation  
Precipitation 0.00 in - 1.07 in (1954)
Month to date precipitation 0.00  
Year to date precipitation 1.24  
Sea Level Pressure  
Sea Level Pressure 29.69 in    
Wind  
Wind Speed 12 mph (NW)    
Max Wind Speed 17 mph    
Max Gust Speed 28 mph    
Visibility 10 miles    
Events      
T = Trace of Precipitation, MM = Missing Value Source: NWS Daily Summary

Daily Weather History Graph

Daily Weather History Graph

Search for Another Location

Airport:

Trip Planner

Search our weather history database for the weather conditions in past years. The results will help you decide how hot, cold, wet, or windy it might be!

Date:

Astronomy

Feb. 17, 2013 Rise Set
Actual Time 6:46 AM EST 5:25 PM EST
Civil Twilight 6:17 AM EST 5:54 PM EST
Nautical Twilight 5:44 AM EST 6:27 PM EST
Astronomical Twilight 5:11 AM EST 7:01 PM EST
Moon 10:23 AM EST (2/17) 12:32 AM EST (2/17)
Length of Visible Light 11h 36m
Length of Day
10h 38m
Waxing Crescent, 49% of the Moon is Illuminated
Feb 17
Waxing Crescent
Feb 17
First Quarter
Feb 25
Full
Mar 4
Last Quarter
Mar 11
New

Hourly Weather History & Observations

Time (EST) Temp. Windchill Dew Point Humidity Pressure Visibility Wind Dir Wind Speed Gust Speed Precip Events Conditions
12:15 AM 19.4 °F 9.5 °F 3.2 °F 49% 29.82 in 10.0 mi NNW 8.1 mph - N/A   Overcast
12:35 AM 19.4 °F 8.6 °F 1.4 °F 46% 29.80 in 10.0 mi North 9.2 mph - N/A   Overcast
12:55 AM 19.4 °F 7.9 °F 1.4 °F 46% 29.79 in 10.0 mi NNW 10.4 mph - N/A   Overcast
1:15 AM 17.6 °F 6.4 °F 1.4 °F 49% 29.77 in 10.0 mi NNW 9.2 mph - N/A   Overcast
1:35 AM 17.6 °F 6.4 °F 1.4 °F 49% 29.76 in 10.0 mi NW 9.2 mph 17.3 mph N/A   Overcast
2:15 AM 17.6 °F 5.0 °F 1.4 °F 49% 29.77 in 10.0 mi NNW 11.5 mph 18.4 mph N/A   Overcast
2:35 AM 17.6 °F 6.4 °F 1.4 °F 49% 29.76 in 10.0 mi NW 9.2 mph - N/A   Overcast
2:55 AM 17.6 °F 4.3 °F 3.2 °F 53% 29.74 in 10.0 mi NNW 12.7 mph 21.9 mph N/A   Overcast
3:15 AM 17.6 °F 3.2 °F 1.4 °F 49% 29.75 in 10.0 mi NW 15.0 mph 24.2 mph N/A   Overcast
3:35 AM 15.8 °F 8.6 °F 3.2 °F 58% 29.74 in 10.0 mi NNW 4.6 mph 19.6 mph N/A   Mostly Cloudy
3:55 AM 15.8 °F 4.2 °F 1.4 °F 53% 29.74 in 10.0 mi NW 9.2 mph 17.3 mph N/A   Scattered Clouds
4:35 AM 15.8 °F 2.7 °F 1.4 °F 53% 29.72 in 10.0 mi NW 11.5 mph 19.6 mph N/A   Mostly Cloudy
4:55 AM 14.0 °F 0.5 °F 1.4 °F 57% 29.73 in 10.0 mi NW 11.5 mph 17.3 mph N/A   Overcast
5:15 AM 14.0 °F 2.0 °F 1.4 °F 57% 29.72 in 10.0 mi NW 9.2 mph 17.3 mph N/A   Mostly Cloudy
5:35 AM 14.0 °F 1.2 °F 1.4 °F 57% 29.71 in 10.0 mi NW 10.4 mph 16.1 mph N/A   Scattered Clouds
5:55 AM 12.2 °F -1.8 °F 3.2 °F 67% 29.72 in 10.0 mi NW 11.5 mph 19.6 mph N/A   Clear
6:15 AM 12.2 °F -2.5 °F 3.2 °F 67% 29.72 in 10.0 mi NNW 12.7 mph 20.7 mph N/A   Mostly Cloudy
6:35 AM 12.2 °F -3.1 °F 3.2 °F 67% 29.71 in 10.0 mi NNW 13.8 mph 24.2 mph N/A   Overcast
7:15 AM 12.2 °F -3.1 °F 3.2 °F 67% 29.70 in 10.0 mi NNW 13.8 mph 20.7 mph N/A   Overcast
7:35 AM 10.4 °F -4.8 °F 5.0 °F 79% 29.69 in 10.0 mi NNW 12.7 mph 24.2 mph N/A   Overcast
7:55 AM 10.4 °F -4.8 °F 3.2 °F 73% 29.69 in 10.0 mi NNW 12.7 mph 23.0 mph N/A   Overcast
8:15 AM 10.4 °F -5.4 °F 5.0 °F 79% 29.68 in 10.0 mi NW 13.8 mph 25.3 mph N/A   Overcast
8:55 AM 10.4 °F -4.1 °F 3.2 °F 73% 29.66 in 10.0 mi NW 11.5 mph 19.6 mph N/A   Overcast
9:15 AM 10.4 °F -5.4 °F 3.2 °F 73% 29.65 in 10.0 mi NW 13.8 mph 25.3 mph N/A   Overcast
9:55 AM 12.2 °F -3.7 °F 3.2 °F 67% 29.65 in 10.0 mi WNW 15.0 mph 25.3 mph N/A   Overcast
10:15 AM 12.2 °F -4.3 °F 3.2 °F 67% 29.65 in 10.0 mi NNW 16.1 mph 27.6 mph N/A   Overcast
10:35 AM 12.2 °F -3.7 °F 3.2 °F 67% 29.65 in 10.0 mi NW 15.0 mph 26.5 mph N/A   Overcast
10:55 AM 12.2 °F -3.7 °F 1.4 °F 62% 29.64 in 10.0 mi NW 15.0 mph 27.6 mph N/A   Overcast
11:15 AM 10.4 °F -5.4 °F 3.2 °F 73% 29.64 in 10.0 mi NW 13.8 mph 25.3 mph N/A   Overcast
11:55 AM 10.4 °F -4.8 °F 3.2 °F 73% 29.63 in 10.0 mi NW 12.7 mph 23.0 mph N/A   Overcast
12:15 PM 12.2 °F -3.1 °F 3.2 °F 67% 29.62 in 10.0 mi NW 13.8 mph 24.2 mph N/A   Overcast
12:35 PM 12.2 °F -4.8 °F 3.2 °F 67% 29.62 in 10.0 mi NNW 17.3 mph 25.3 mph N/A   Mostly Cloudy
12:55 PM 12.2 °F -3.7 °F 3.2 °F 67% 29.62 in 10.0 mi NW 15.0 mph 21.9 mph N/A   Mostly Cloudy
1:15 PM 12.2 °F -4.8 °F 1.4 °F 62% 29.62 in 10.0 mi NW 17.3 mph 23.0 mph N/A   Overcast
1:35 PM 12.2 °F -2.5 °F 3.2 °F 67% 29.61 in 10.0 mi NW 12.7 mph 21.9 mph N/A   Overcast
1:55 PM 14.0 °F 1.2 °F 3.2 °F 62% 29.61 in 10.0 mi NNW 10.4 mph 18.4 mph N/A   Overcast
2:15 PM 14.0 °F 0.5 °F 1.4 °F 57% 29.61 in 10.0 mi NNW 11.5 mph 21.9 mph N/A   Overcast
2:35 PM 14.0 °F -2.5 °F 1.4 °F 57% 29.61 in 10.0 mi NW 17.3 mph 26.5 mph N/A   Overcast
2:55 PM 15.8 °F -0.2 °F 1.4 °F 53% 29.61 in 10.0 mi NW 17.3 mph 23.0 mph N/A   Scattered Clouds
3:15 PM 15.8 °F 2.7 °F 1.4 °F 53% 29.61 in 10.0 mi NW 11.5 mph 24.2 mph N/A   Scattered Clouds
3:35 PM 15.8 °F 2.1 °F 1.4 °F 53% 29.61 in 10.0 mi NNW 12.7 mph 29.9 mph N/A   Partly Cloudy
4:15 PM 15.8 °F 1.4 °F 1.4 °F 53% 29.61 in 10.0 mi NNW 13.8 mph 21.9 mph N/A   Partly Cloudy
4:35 PM 15.8 °F 2.1 °F -0.4 °F 49% 29.61 in 10.0 mi NNW 12.7 mph 21.9 mph N/A   Clear
4:55 PM 15.8 °F 4.2 °F -0.4 °F 49% 29.63 in 10.0 mi NNW 9.2 mph 18.4 mph N/A   Clear
5:15 PM 15.8 °F 3.4 °F -0.4 °F 49% 29.63 in 10.0 mi NNW 10.4 mph 18.4 mph N/A   Partly Cloudy
5:35 PM 15.8 °F 3.4 °F -0.4 °F 49% 29.65 in 10.0 mi NW 10.4 mph 18.4 mph N/A   Partly Cloudy
5:55 PM 15.8 °F 3.4 °F -0.4 °F 49% 29.66 in 10.0 mi NW 10.4 mph 16.1 mph N/A   Partly Cloudy
6:15 PM 15.8 °F 3.4 °F -0.4 °F 49% 29.67 in 10.0 mi WNW 10.4 mph 17.3 mph N/A   Partly Cloudy
6:35 PM 15.8 °F 2.1 °F -2.2 °F 45% 29.68 in 10.0 mi WNW 12.7 mph 18.4 mph N/A   Mostly Cloudy
6:56 PM 14.0 °F 1.2 °F -2.2 °F 49% 29.69 in 10.0 mi WNW 10.4 mph - N/A   Overcast
7:35 PM 12.2 °F -3.1 °F -4.0 °F 48% 29.70 in 10.0 mi WNW 13.8 mph 21.9 mph N/A   Partly Cloudy
7:55 PM 12.2 °F -1.0 °F -2.2 °F 53% 29.71 in 10.0 mi WNW 10.4 mph 17.3 mph N/A   Scattered Clouds
8:15 PM 10.4 °F -3.3 °F -2.2 °F 57% 29.72 in 10.0 mi WNW 10.4 mph 19.6 mph N/A   Mostly Cloudy
8:35 PM 10.4 °F -5.4 °F -2.2 °F 57% 29.72 in 10.0 mi West 13.8 mph 23.0 mph N/A   Scattered Clouds
8:55 PM 10.4 °F -4.8 °F -2.2 °F 57% 29.73 in 10.0 mi WNW 12.7 mph 24.2 mph N/A   Mostly Cloudy
9:15 PM 10.4 °F -4.8 °F -2.2 °F 57% 29.73 in 10.0 mi WNW 12.7 mph 21.9 mph N/A   Overcast
9:35 PM 10.4 °F -5.4 °F -2.2 °F 57% 29.74 in 10.0 mi WNW 13.8 mph 19.6 mph N/A   Overcast
10:15 PM 10.4 °F -4.8 °F -2.2 °F 57% 29.75 in 10.0 mi WNW 12.7 mph 25.3 mph N/A   Overcast
10:35 PM 8.6 °F -8.3 °F -2.2 °F 62% 29.75 in 10.0 mi WNW 15.0 mph 23.0 mph N/A   Overcast
10:55 PM 8.6 °F -7.0 °F -2.2 °F 62% 29.77 in 10.0 mi WNW 12.7 mph 20.7 mph N/A   Overcast
11:15 PM 8.6 °F -7.0 °F -2.2 °F 62% 29.78 in 10.0 mi WNW 12.7 mph 21.9 mph N/A   Overcast
11:35 PM 8.6 °F -6.3 °F -2.2 °F 62% 29.79 in 10.0 mi West 11.5 mph 16.1 mph N/A   Overcast
11:55 PM 8.6 °F -4.7 °F -2.2 °F 62% 29.80 in 10.0 mi WNW 9.2 mph 16.1 mph N/A   Overcast